• In Schweiz
  • Länderverzeichnis
  • Für 7 Tage
  • Wassertemperatur
  • Satellitenkarten
  • Wetterkarte
  • Widgets
  • user-avatar
    Anmelden

    Stündliche Wetter Lillehammer

    Heute, 20 Juli, Freitag

    Zeit Temperatur Niederschläge Wind Luftdruck Luftfeuchtigkeit
    00:00 +16°C° 0 mm 1 m/S 716 mmHg 75%
    01:00 +15°C° 0 mm 1 m/S 716 mmHg 78%
    02:00 +15°C° 0 mm 1 m/S 716 mmHg 80%
    03:00 +15°C° 0 mm 1 m/S 715 mmHg 82%
    04:00 +14°C° 0 mm 1 m/S 715 mmHg 84%
    05:00 +16°C° 0 mm 1 m/S 715 mmHg 79%
    06:00 +19°C° 0 mm 1 m/S 715 mmHg 74%
    07:00 +21°C° 0 mm 1 m/S 716 mmHg 68%
    08:00 +22°C° 0,4 mm 1 m/S 715 mmHg 64%
    09:00 +23°C° 0,4 mm 1 m/S 715 mmHg 60%
    10:00 +24°C° 0,4 mm 2 m/S 715 mmHg 55%
    11:00 +25°C° 0,2 mm 2 m/S 715 mmHg 52%
    12:00 +26°C° 0,2 mm 2 m/S 715 mmHg 48%
    13:00 +26°C° 0 mm 2 m/S 715 mmHg 44%
    14:00 +27°C° 0,1 mm 2 m/S 715 mmHg 43%
    15:00 +27°C° 0,1 mm 3 m/S 714 mmHg 43%
    16:00 +27°C° 0,1 mm 3 m/S 714 mmHg 42%
    17:00 +26°C° 0 mm 2 m/S 714 mmHg 45%
    18:00 +25°C° 0 mm 2 m/S 714 mmHg 48%
    19:00 +25°C° 0 mm 2 m/S 713 mmHg 51%
    20:00 +21°C° 0 mm 2 m/S 713 mmHg 59%
    21:00 +20°C° 0 mm 1 m/S 713 mmHg 66%
    22:00 +16°C° 0 mm 1 m/S 713 mmHg 73%
    23:00 +15°C° 0 mm 1 m/S 713 mmHg 74%

    Morgen, 21 Juli, Samstag

    Zeit Temperatur Niederschläge Wind Luftdruck Luftfeuchtigkeit
    00:00 +14°C° 0 mm 0 m/S 713 mmHg 74%
    01:00 +13°C° 0 mm 0 m/S 712 mmHg 75%
    02:00 +13°C° 0 mm 0 m/S 712 mmHg 75%
    03:00 +13°C° 0 mm 0 m/S 712 mmHg 76%
    04:00 +12°C° 0 mm 0 m/S 712 mmHg 77%
    05:00 +15°C° 0 mm 0 m/S 712 mmHg 70%
    06:00 +17°C° 0 mm 0 m/S 712 mmHg 64%
    07:00 +19°C° 0 mm 0 m/S 712 mmHg 58%
    08:00 +22°C° 0 mm 1 m/S 712 mmHg 53%
    09:00 +24°C° 0 mm 1 m/S 712 mmHg 48%
    10:00 +25°C° 0 mm 1 m/S 712 mmHg 43%
    11:00 +26°C° 0,1 mm 1 m/S 712 mmHg 39%
    12:00 +26°C° 0,1 mm 2 m/S 712 mmHg 35%
    13:00 +27°C° 0,1 mm 2 m/S 712 mmHg 31%
    14:00 +27°C° 0 mm 1 m/S 712 mmHg 30%
    15:00 +27°C° 0 mm 1 m/S 711 mmHg 29%
    16:00 +28°C° 0 mm 1 m/S 711 mmHg 28%
    17:00 +27°C° 0 mm 1 m/S 711 mmHg 33%
    18:00 +26°C° 0 mm 1 m/S 711 mmHg 38%
    19:00 +25°C° 0 mm 1 m/S 711 mmHg 43%
    20:00 +21°C° 0 mm 2 m/S 711 mmHg 54%
    21:00 +19°C° 0 mm 2 m/S 711 mmHg 64%
    22:00 +16°C° 0 mm 2 m/S 711 mmHg 75%
    23:00 +16°C° 0 mm 2 m/S 711 mmHg 80%

    übermorgen, 22 Juli, Sonntag

    Zeit Temperatur Niederschläge Wind Luftdruck Luftfeuchtigkeit
    00:00 +15°C° 0 mm 2 m/S 711 mmHg 84%
    01:00 +14°C° 0 mm 2 m/S 711 mmHg 89%
    02:00 +13°C° 0 mm 2 m/S 711 mmHg 90%
    03:00 +13°C° 0 mm 2 m/S 711 mmHg 91%
    04:00 +13°C° 0 mm 1 m/S 711 mmHg 93%
    05:00 +14°C° 0 mm 1 m/S 711 mmHg 85%
    06:00 +16°C° 0 mm 1 m/S 711 mmHg 77%
    07:00 +19°C° 0 mm 1 m/S 712 mmHg 69%
    08:00 +21°C° 0 mm 1 m/S 712 mmHg 62%
    09:00 +23°C° 0 mm 1 m/S 712 mmHg 56%
    10:00 +25°C° 0 mm 1 m/S 712 mmHg 50%
    11:00 +26°C° 0,1 mm 1 m/S 712 mmHg 47%
    12:00 +26°C° 0,1 mm 1 m/S 712 mmHg 44%
    13:00 +27°C° 0,1 mm 1 m/S 712 mmHg 41%
    14:00 +27°C° 0 mm 1 m/S 712 mmHg 42%
    15:00 +27°C° 0 mm 2 m/S 711 mmHg 43%
    16:00 +26°C° 0 mm 2 m/S 711 mmHg 44%
    17:00 +26°C° 0 mm 2 m/S 711 mmHg 46%
    18:00 +25°C° 0 mm 2 m/S 711 mmHg 49%
    19:00 +25°C° 0 mm 2 m/S 711 mmHg 51%
    20:00 +23°C° 0 mm 1 m/S 711 mmHg 59%
    21:00 +20°C° 0 mm 1 m/S 712 mmHg 66%
    22:00 +18°C° 0 mm 1 m/S 712 mmHg 73%
    23:00 +16°C° 0 mm 1 m/S 712 mmHg 77%

    23 Juli, Montag

    Zeit Temperatur Niederschläge Wind Luftdruck Luftfeuchtigkeit
    00:00 +15°C° 0 mm 1 m/S 712 mmHg 81%
    01:00 +15°C° 0 mm 1 m/S 712 mmHg 84%
    02:00 +14°C° 0 mm 1 m/S 712 mmHg 86%
    03:00 +14°C° 0 mm 1 m/S 712 mmHg 87%
    04:00 +13°C° 0 mm 1 m/S 712 mmHg 89%
    05:00 +15°C° 0 mm 1 m/S 712 mmHg 81%
    06:00 +18°C° 0 mm 1 m/S 712 mmHg 73%
    07:00 +18°C° 0 mm 0 m/S 713 mmHg 66%
    08:00 +22°C° 0 mm 1 m/S 713 mmHg 59%
    09:00 +24°C° 0 mm 1 m/S 713 mmHg 53%
    10:00 +25°C° 0 mm 1 m/S 713 mmHg 47%
    11:00 +26°C° 0 mm 1 m/S 713 mmHg 44%
    12:00 +27°C° 0 mm 2 m/S 713 mmHg 40%
    13:00 +27°C° 0 mm 2 m/S 713 mmHg 37%
    14:00 +28°C° 0 mm 2 m/S 713 mmHg 37%
    15:00 +28°C° 0 mm 2 m/S 713 mmHg 36%
    16:00 +28°C° 0 mm 2 m/S 713 mmHg 35%
    17:00 +27°C° 0 mm 2 m/S 713 mmHg 40%
    18:00 +26°C° 0 mm 2 m/S 713 mmHg 46%
    19:00 +25°C° 0 mm 2 m/S 713 mmHg 51%
    20:00 +23°C° 0 mm 2 m/S 713 mmHg 59%
    21:00 +21°C° 0 mm 1 m/S 714 mmHg 67%
    22:00 +19°C° 0 mm 1 m/S 714 mmHg 75%
    23:00 +18°C° 0 mm 1 m/S 714 mmHg 79%

    24 Juli, Dienstag

    Zeit Temperatur Niederschläge Wind Luftdruck Luftfeuchtigkeit
    00:00 +16°C° 0 mm 1 m/S 714 mmHg 83%
    01:00 +14°C° 0 mm 1 m/S 714 mmHg 87%
    02:00 +14°C° 0 mm 1 m/S 714 mmHg 89%
    03:00 +14°C° 0 mm 1 m/S 714 mmHg 91%
    04:00 +13°C° 0 mm 1 m/S 714 mmHg 92%
    05:00 +14°C° 0 mm 0 m/S 714 mmHg 85%
    06:00 +16°C° 0 mm 0 m/S 714 mmHg 78%
    07:00 +18°C° 0 mm 0 m/S 714 mmHg 71%
    08:00 +21°C° 0 mm 1 m/S 715 mmHg 64%
    09:00 +23°C° 0 mm 1 m/S 715 mmHg 57%
    10:00 +25°C° 0 mm 2 m/S 715 mmHg 50%
    11:00 +26°C° 0 mm 2 m/S 715 mmHg 47%
    12:00 +27°C° 0 mm 3 m/S 715 mmHg 43%
    13:00 +28°C° 0 mm 3 m/S 715 mmHg 39%
    14:00 +28°C° 0 mm 3 m/S 715 mmHg 40%
    15:00 +27°C° 0 mm 3 m/S 715 mmHg 41%
    16:00 +27°C° 0 mm 3 m/S 715 mmHg 42%
    17:00 +27°C° 0 mm 3 m/S 715 mmHg 45%
    18:00 +26°C° 0 mm 2 m/S 715 mmHg 49%
    19:00 +26°C° 0 mm 2 m/S 715 mmHg 52%
    20:00 +24°C° 0 mm 2 m/S 715 mmHg 60%
    21:00 +20°C° 0 mm 2 m/S 715 mmHg 69%
    22:00 +19°C° 0 mm 1 m/S 715 mmHg 77%
    23:00 +18°C° 0 mm 1 m/S 715 mmHg 82%

    25 Juli, Mittwoch

    Zeit Temperatur Niederschläge Wind Luftdruck Luftfeuchtigkeit
    00:00 +18°C° 0 mm 1 m/S 715 mmHg 86%
    01:00 +16°C° 0 mm 1 m/S 715 mmHg 90%
    02:00 +15°C° 0 mm 1 m/S 715 mmHg 92%
    03:00 +15°C° 0 mm 1 m/S 715 mmHg 93%
    04:00 +14°C° 0 mm 1 m/S 715 mmHg 95%
    05:00 +16°C° 0 mm 1 m/S 715 mmHg 89%
    06:00 +18°C° 0 mm 1 m/S 716 mmHg 83%
    07:00 +20°C° 0 mm 1 m/S 716 mmHg 77%
    08:00 +21°C° 0 mm 2 m/S 716 mmHg 69%
    09:00 +23°C° 0 mm 2 m/S 716 mmHg 60%
    10:00 +25°C° 0 mm 2 m/S 717 mmHg 51%
    11:00 +26°C° 0 mm 3 m/S 717 mmHg 48%
    12:00 +27°C° 0 mm 3 m/S 717 mmHg 44%
    13:00 +28°C° 0 mm 3 m/S 717 mmHg 41%
    14:00 +28°C° 0 mm 3 m/S 717 mmHg 40%
    15:00 +29°C° 0 mm 3 m/S 717 mmHg 38%
    16:00 +29°C° 0 mm 3 m/S 717 mmHg 37%
    17:00 +28°C° 0 mm 3 m/S 717 mmHg 42%
    18:00 +27°C° 0 mm 2 m/S 717 mmHg 46%
    19:00 +26°C° 0 mm 2 m/S 717 mmHg 50%
    20:00 +24°C° 0,1 mm 2 m/S 717 mmHg 60%
    21:00 +21°C° 0,1 mm 2 m/S 717 mmHg 70%
    22:00 +19°C° 0,1 mm 1 m/S 717 mmHg 80%
    23:00 +19°C° 0,1 mm 1 m/S 717 mmHg 85%
    Mehr zeigen